Location: B�rgermoos
(47.6500°N, 9.0667°E)
Time: 09:19:10
(UTC+00:00)

Lacrosse 5 rocket - Pass Details

Date: 18 September 2020
Orbit: 460 x 636 km, 57.0° (Epoch: 27 October)

Event Time Altitude Azimuth Distance (km) Brightness Sun altitude
Rises 19:46:54 0° 286° (WNW) 2,789 6.2 -22.9°
Reaches altitude 10° 19:49:27 10° 300° (WNW) 1,922 5.2 -23.3°
Maximum altitude 19:53:05 25° 356° (N) 1,250 3.4 -23.8°
Enters shadow 19:55:07 18° 34° (NE) 1,514 3.5 -24.1°
